Overview Statistics Trail Chart Weather Telemetry Raw packets
 

This is the latest recevied weather packets stored in our database for station/object ZL2ASC-13. If no packets are shown the sender has not sent any weather packets the latest 10 day(s).

<< 420 421 422 423 424 425 426 >>
Time Temp. Humidity Pressure Rain* Wind** Luminosity Snow
1788051981 17.22° C 57% 1001 hPa 0 mm - - -
1788051921 17.22° C 58% 1001.1 hPa 0 mm - - -
1788051861 17.22° C 57% 1001 hPa 0 mm - - -
1788051801 17.22° C 58% 1001.1 hPa 0 mm - - -
1788051741 17.22° C 56% 1001.1 hPa 0 mm - - -
1788051681 17.22° C 57% 1001.2 hPa 0 mm - - -
1788051621 17.22° C 57% 1001.1 hPa 0 mm - - -
1788051561 17.22° C 57% 1001.2 hPa 0 mm - - -
1788051501 17.22° C 59% 1001.1 hPa 0 mm - - -
1788051441 17.22° C 56% 1001.2 hPa 0 mm - - -
1788051381 17.22° C 57% 1001.3 hPa 0 mm - - -
1788051320 17.22° C 57% 1001.3 hPa 0 mm - - -
1788051260 17.22° C 58% 1001.2 hPa 0 mm - - -
1788051200 16.67° C 57% 1001.1 hPa 0 mm - - -
1788051140 16.67° C 58% 1001.4 hPa 0 mm - - -
1788051080 16.67° C 57% 1001.3 hPa 0 mm - - -
1788051020 16.67° C 58% 1001.4 hPa 0 mm - - -
1788050960 16.67° C 57% 1001.3 hPa 0 mm - - -
1788050900 17.22° C 56% 1001.4 hPa 0 mm - - -
1788050840 17.22° C 57% 1001.5 hPa 0 mm - - -
1788050780 17.22° C 57% 1001.5 hPa 0 mm - - -
1788050720 17.22° C 57% 1001.5 hPa 0 mm - - -
1788050660 17.22° C 58% 1001.6 hPa 0 mm - - -
1788050600 17.22° C 57% 1001.6 hPa 0 mm - - -
1788050540 17.22° C 57% 1001.7 hPa 0 mm - - -

* Rain latest hour (hover to see other rain measurements)
** Current wind speed in m/s (hover to see current wind gust speed)